Location: Ferintosh
(52.7647°N, 112.9692°W)
Time: 00:26:18
(UTC+00:00)

Vanguard 1 Rocket - Pass Details

Date: 26 May 2024
Orbit: 649 x 4221 km, 34.3° (Epoch: 13 June)

Event Time Altitude Azimuth Distance (km) Brightness Sun altitude
Rises 21:10:33 0° 269° (W) 6,573 12.1 53.0°
Reaches altitude 10° 21:17:56 10° 251° (WSW) 4,701 11.8 52.3°
Maximum altitude 21:23:43 15° 223° (SW) 3,591 11.4 51.6°
Drops below altitude 10° 21:28:08 10° 192° (SSW) 3,395 11.0 51.2°
Sets 21:32:00 0° 168° (SSE) 3,873 10.9 50.7°
